Penn Yan, NY

1:43 PM EDT on August 26, 2016 (GMT -0400)
Penn Yan

Weather History for KPEO - November, 2013

Change the Weather History Date:

Sunday, November 3, 2013

  Actual Average (KITH) Record (KITH)
Temperature  
Mean Temperature 32 °F -  
Max Temperature 39 °F 56 °F 78 °F (1982)
Min Temperature 28 °F 37 °F 22 °F (1965)
Degree Days  
Heating Degree Days 32    
Moisture  
Dew Point 26 °F    
Average Humidity 74    
Maximum Humidity 93    
Minimum Humidity 50    
Precipitation  
Precipitation 0.02 in - - ()
Sea Level Pressure  
Sea Level Pressure 30.22 in    
Wind  
Wind Speed 8 mph (NW)    
Max Wind Speed 12 mph    
Max Gust Speed 21 mph    
Visibility 10 miles    
Events Rain    
Averages and records for this station are not official NWS values.
T = Trace of Precipitation, MM = Missing Value Source: NWS Daily Summary

Daily Weather History Graph

Daily Weather History Graph

Search for Another Location

Airport or City:

Trip Planner

Search our weather history database for the weather conditions in past years. The results will help you decide how hot, cold, wet, or windy it might be!

Date:

Astronomy

Nov. 03, 2013 Rise Set
Actual Time 6:44 AM EST 4:58 PM EST
Civil Twilight 6:15 AM EST 5:27 PM EST
Nautical Twilight 5:41 AM EST 6:01 PM EST
Astronomical Twilight 5:08 AM EST 6:33 PM EST
Moon 6:46 AM EST (11/3) 5:10 PM EST (11/3)
Length of Visible Light 11h 12m
Length of Day
10h 13m
New Moon, 0% of the Moon is Illuminated
Nov 3
New Moon
Nov 10
First Quarter
Nov 17
Full
Nov 25
Last Quarter
Dec 2
New

Hourly Weather History & Observations

Time (EST) Temp. Windchill Dew Point Humidity Pressure Visibility Wind Dir Wind Speed Gust Speed Precip Events Conditions
12:53 AM 37.9 °F 32.1 °F 35.1 °F 89% 29.98 in 7.0 mi NNW 8.1 mph - 0.00 in Rain Light Rain
1:19 AM 37.4 °F 30.3 °F 35.6 °F 93% 29.97 in 10.0 mi North 10.4 mph - 0.00 in   Overcast
1:35 AM 37.4 °F 31.4 °F 33.8 °F 87% 29.98 in 10.0 mi North 8.1 mph - 0.00 in   Overcast
1:53 AM 37.0 °F 31.0 °F 34.0 °F 89% 30.01 in 10.0 mi North 8.1 mph - 0.00 in   Overcast
1:10 AM 35.6 °F 29.9 °F 33.8 °F 93% 30.00 in 10.0 mi North 6.9 mph 17.3 mph 0.00 in Rain Light Rain
1:29 AM 35.6 °F 30.7 °F 33.8 °F 93% 30.00 in 6.0 mi North 5.8 mph - 0.01 in Rain Light Rain
1:53 AM 36.0 °F 28.5 °F 34.0 °F 93% 30.03 in 8.0 mi NW 10.4 mph - 0.01 in Rain Light Rain
2:03 AM 35.6 °F 29.2 °F 33.8 °F 93% 30.01 in 6.0 mi NNW 8.1 mph - 0.01 in Rain Light Rain
2:53 AM 36.0 °F 28.0 °F 33.1 °F 89% 30.06 in 10.0 mi NW 11.5 mph - 0.01 in   Overcast
3:30 AM 35.6 °F 28.0 °F 32.0 °F 87% 30.06 in 10.0 mi NNW 10.4 mph 18.4 mph N/A   Overcast
3:53 AM 35.1 °F 27.9 °F 30.9 °F 85% 30.09 in 10.0 mi NNW 9.2 mph - N/A   Overcast
4:03 AM 33.8 °F 27.7 °F 30.2 °F 87% 30.07 in 10.0 mi NW 6.9 mph - N/A   Overcast
4:48 AM 33.8 °F 25.8 °F 30.2 °F 87% 30.10 in 10.0 mi NNW 10.4 mph 18.4 mph N/A   Overcast
4:53 AM 34.0 °F 26.0 °F 30.0 °F 85% 30.13 in 10.0 mi NW 10.4 mph - N/A   Overcast
5:53 AM 34.0 °F 27.2 °F 28.0 °F 79% 30.17 in 10.0 mi NNW 8.1 mph - N/A   Overcast
6:31 AM 33.8 °F 25.8 °F 26.6 °F 75% 30.16 in 10.0 mi NW 10.4 mph - N/A   Overcast
6:53 AM 33.1 °F 25.5 °F 26.1 °F 75% 30.20 in 10.0 mi NW 9.2 mph - N/A   Overcast
7:53 AM 33.1 °F 26.1 °F 25.0 °F 72% 30.25 in 10.0 mi NW 8.1 mph - N/A   Mostly Cloudy
8:53 AM 33.1 °F 24.4 °F 21.9 °F 64% 30.27 in 10.0 mi NW 11.5 mph 20.7 mph N/A   Mostly Cloudy
9:53 AM 36.0 °F 28.5 °F 23.0 °F 59% 30.29 in 10.0 mi NW 10.4 mph 18.4 mph N/A   Mostly Cloudy
10:53 AM 35.1 °F 26.9 °F 21.0 °F 57% 30.32 in 10.0 mi WNW 11.5 mph 19.6 mph N/A   Overcast
11:53 AM 36.0 °F 29.6 °F 21.9 °F 57% 30.33 in 10.0 mi NW 8.1 mph - N/A   Overcast
12:53 PM 36.0 °F 29.0 °F 21.0 °F 55% 30.35 in 10.0 mi WNW 9.2 mph - N/A   Overcast
1:53 PM 36.0 °F 29.0 °F 19.0 °F 50% 30.36 in 10.0 mi NW 9.2 mph - N/A   Mostly Cloudy
2:53 PM 37.0 °F 31.0 °F 19.9 °F 50% 30.37 in 10.0 mi NW 8.1 mph 16.1 mph N/A   Mostly Cloudy
3:53 PM 35.1 °F 27.9 °F 19.9 °F 54% 30.39 in 10.0 mi NNW 9.2 mph 16.1 mph N/A   Mostly Cloudy
4:53 PM 34.0 °F 28.0 °F 19.9 °F 56% 30.42 in 10.0 mi NW 6.9 mph - N/A   Overcast
5:53 PM 30.9 °F 26.2 °F 19.0 °F 61% 30.45 in 10.0 mi NNW 4.6 mph - N/A   Partly Cloudy
6:53 PM 30.0 °F - 19.0 °F 64% 30.47 in 10.0 mi Calm Calm - N/A   Clear
7:53 PM 30.0 °F - 19.9 °F 66% 30.48 in 10.0 mi Calm Calm - N/A   Clear
8:53 PM 30.0 °F - 19.9 °F 66% 30.50 in 10.0 mi Calm Calm - N/A   Clear
9:53 PM 28.9 °F 23.9 °F 21.0 °F 72% 30.52 in 10.0 mi NW 4.6 mph - N/A   Clear
10:53 PM 28.0 °F - 21.0 °F 75% 30.55 in 10.0 mi Calm Calm - N/A   Clear